Regional Weather Roundup
Issued by NWS Bismarck, ND

Home | Current Version | Previous Version | Text Only | Print | Product List | Glossary On
Versions: 1 2 3 4 5 6 7 8 9 10 11 12 13 14 15 16 17 18 19 20 21 22 23 24 25 26 27 28 29 30 31 32 33 34 35 36 37 38 39 40 41 42 43 44 45 46 47 48 49 50
643
ASUS43 KBIS 271210
RWRBIS

NWR BROADCAST TEXT
NATIONAL WEATHER SERVICE BISMARCK ND
700 AM CDT SAT MAY 27 2017

NOTE: "FAIR" INDICATES FEW OR NO CLOUDS BELOW 12,000 FEET WITH NO
SIGNIFICANT WEATHER AND/OR OBSTRUCTIONS TO VISIBILITY.


CITY           SKY/WX    TMP DP  RH WIND       PRES   REMARKS
WILLISTON      CLOUDY    50  40  68 W14       29.87S
MINOT          CLOUDY    54  40  59 SW13      29.81R
MINOT AFB      MOCLDY    52  41  68 W10       29.80S
BISMARCK       FAIR      47  38  71 SW5       29.88R
DICKINSON      FAIR      43  36  76 W7        29.90R
GARRISON         N/A     45  38  76 W6        29.84F
HETTINGER ARPT FAIR      39  35  86 NW7       29.95R
JAMESTOWN      FAIR      51  41  68 W7        29.84S
HAZEN          FAIR      43  37  81 SW9       29.89S
LINTON           N/A     45  43  93 CALM      29.91R
MANDAN         FAIR      46  37  71 W6        29.89R
STANLEY        FAIR      46  46 100 W7        29.86S
TIOGA          FAIR      46  46 100 W12       29.86S
WATFORD CITY   FAIR      45  39  81 SW9       29.87F
$$

CITY           SKY/WX    TMP DP  RH WIND       PRES   REMARKS
GRAND FORKS    FAIR      53  43  68 W9        29.78R
GRAND FORKS AF FAIR      53  41  64 W8        29.79R
DEVILS LAKE    FAIR      53  44  71 W12       29.80S
FARGO          FAIR      54  45  71 MISG      29.82S
CAVALIER       FAIR      54  41  62 W10       29.74S
GRAFTON        FAIR      50  45  81 SW8       29.78R
GWINNER        MOSUNNY   54  46  76 MISG      29.86S
LANGDON        FAIR      48  45  87 SW9       29.77S
ROLLA          PTSUNNY   48  43  81 SW12      29.77S
$$

CITY           SKY/WX    TMP DP  RH WIND       PRES   REMARKS
ABERDEEN       CLOUDY    52  44  74 S6        29.90R
MOBRIDGE       FAIR      55  42  61 CALM      29.89R
BUFFALO          N/A     43  38  82 W12       29.91R
RAPID CITY     CLOUDY    48  45  89 NW5       29.99R
GLASGOW        CLOUDY    49  40  71 W3        29.90S
SIDNEY         FAIR      52  39  61 W7        29.89S
WOLF POINT     MOCLDY    50  39  66 SW8       29.90R
GLENDIVE       MOCLDY    45  38  76 S3        29.93S
MILES CITY     FAIR      43  35  73 SW5       29.97R
BAKER          FAIR      41  34  76 CALM      29.97R
$$

CITY           SKY/WX    TMP DP  RH WIND       PRES   REMARKS
BILLINGS       FAIR      43  36  76 SW17      30.04R
GREAT FALLS    FAIR      44  36  73 SW13      30.03S
REGINA         PTCLDY    41  41 100 W3        29.78S
ESTEVAN        PTCLDY    46  41  81 SW10      29.81S
$$





USA.gov is the U.S. government's official web portal to all federal, state and local government web resources and services.